www.pogodaiklimat.ru
ПОГОДА в Эрингене
Время
(UTC), дата
13 30.11
14 30.11
15 30.11
16 30.11
17 30.11
18 30.11
19 30.11
20 30.11
21 30.11
22 30.11
23 30.11
00 1.12
01 1.12
02 1.12
03 1.12
04 1.12
05 1.12
06 1.12
07 1.12
08 1.12
09 1.12
10 1.12
11 1.12
12 1.12
13 1.12
14 1.12
15 1.12
16 1.12
17 1.12
18 1.12
19 1.12
20 1.12
21 1.12
22 1.12
23 1.12
00 2.12
01 2.12
02 2.12
03 2.12
04 2.12
05 2.12
06 2.12
07 2.12
08 2.12
09 2.12
10 2.12
11 2.12
12 2.12
13 2.12
14 2.12
15 2.12
16 2.12
17 2.12
18 2.12
19 2.12
20 2.12
21 2.12
22 2.12
23 2.12
00 3.12
01 3.12
02 3.12
03 3.12
04 3.12
05 3.12
06 3.12
07 3.12
08 3.12
09 3.12
10 3.12
11 3.12
12 3.12
13 3.12
14 3.12
15 3.12
16 3.12
17 3.12
18 3.12
19 3.12
20 3.12
21 3.12
22 3.12
23 3.12
00 4.12
01 4.12
02 4.12
03 4.12
04 4.12
05 4.12
06 4.12
07 4.12
08 4.12
09 4.12
10 4.12
11 4.12
12 4.12
13 4.12
14 4.12
15 4.12
16 4.12
17 4.12
18 4.12
19 4.12
20 4.12
21 4.12
22 4.12
23 4.12
00 5.12
01 5.12
02 5.12
03 5.12
04 5.12
05 5.12
06 5.12
07 5.12
08 5.12
09 5.12
10 5.12
11 5.12
12 5.12
13 5.12
14 5.12
15 5.12
16 5.12
17 5.12
18 5.12
19 5.12
20 5.12
21 5.12
22 5.12
23 5.12
00 6.12
01 6.12
02 6.12
03 6.12
04 6.12
05 6.12
06 6.12
07 6.12
08 6.12
09 6.12
10 6.12
11 6.12
12 6.12
13 6.12
14 6.12
15 6.12
16 6.12
17 6.12
18 6.12
19 6.12
20 6.12
21 6.12
22 6.12
23 6.12
00 7.12
01 7.12
02 7.12
03 7.12
04 7.12
05 7.12
06 7.12
07 7.12
08 7.12
09 7.12
10 7.12
11 7.12
12 7.12
13 7.12
Ветер
(напр.,м/с)
Видим. Явления Облачность Т
(С)
Тd
(С)
f
(%)
Тe
(С)
Тes
(С)
Комфортность P
(гПа)
Po
(гПа)
Тmin
(С)
Tmax
(С)
R
(мм)
R24
(мм)
S
(см)
ЮВ 1-2
{3}
30 км 5/5 1500 м
[]
+7.0 -0.3 60 +6 +7 тепло 1024.1 990.6
В 2-3
{3}
45 км 10/10 1500 м
[]
+7.0 +0.1 61 +5 +5 тепло 1023.7 990.2
СВ 3 35 км 5/5 1440 м
[]
+5.8 +0.6 69 +3 +3 по сезону 1023.8 990.2
В 3-3
{4}
30 км ясно +3.8 +1.1 83 0 0 по сезону 1024.0 990.1
В 3-4
{4}
27 км ясно +2.6 +0.3 85 -2 -2 по сезону 1024.0 990.0
В 4 29 км ясно +2.0 -0.4 84 -3 -3 прохладно 1023.9 989.8 +2.0 +7.4
В 1-1
{4}
28 км ясно +1.1 -0.8 87 -1 -1 по сезону 1024.2 990.0
В 1-2
{2}
28 км ясно +0.7 -0.8 90 -1 -1 по сезону 1024.0 989.7
В 1 21 км 9/0
[]
+0.1 -1.0 92 -2 -2 по сезону 1023.9 989.6
ЮВ 2 18 км 10/0
[]
-0.1 -1.4 91 -4 -4 прохладно 1023.5 989.1
В 5 23 км 10/0
[]
+0.5 -1.4 87 -5 -5 холодно 1022.3 988.1
В 3 25 км 10/0
[]
+0.5 -1.5 86 -4 -4 прохладно 1022.4 988.2
В 3 27 км 10/0
[]
+0.4 -1.5 87 -4 -4 прохладно 1022.3 988.0
СВ 4 28 км 10/0
[]
+0.7 -1.4 86 -5 -5 холодно 1021.7 987.5
В 3 25 км 10/0
[]
+0.6 -1.4 86 -4 -4 прохладно 1021.3 987.1
СВ 3 27 км 10/0
[]
+0.6 -1.5 86 -4 -4 прохладно 1020.4 986.2
В 4-6
{6}
30 км 10/0
[]
+1.1 -1.5 83 -4 -4 прохладно 1019.6 985.5
В 4 26 км 10/0
[]
+1.0 -1.7 82 -4 -4 прохладно 1019.2 985.1 -0.2 +2.0
В 5-7
{8}
29 км 10/0
[]
+1.0 -1.7 82 -5 -5 холодно 1018.5 984.4
В 5-6
{8}
30 км 10/0
[]
+1.3 -1.9 79 -4 -4 прохладно 1018.5 984.5
В 4 40 км 10/0
[]
+1.6 -2.1 76 -3 -3 прохладно 1018.4 984.4
В 4 40 км 10/0
[]
+1.9 -2.2 74 -3 -2 прохладно 1018.6 984.6
В 4 50 км 10/0
[]
+2.2 -2.3 72 -2 -2 по сезону 1018.4 984.5
В 4 >70 км 10/10 1500 м
[]
+2.4 -2.4 71 -2 -2 по сезону 1018.2 984.3
В 3 40 км 9/0 2000 м
[]
+2.6 -2.2 71 -1 -1 по сезону 1017.9 984.1
В 3 45 км 10/10 1500 м
[]
+2.5 -2.0 72 -1 -1 по сезону 1018.1 984.2
В 3 45 км 9/0 2000 м
[]
+2.3 -2.1 73 -2 -2 по сезону 1017.8 983.9
В 3 45 км 9/9 1500 м
[]
+2.1 -1.9 75 -2 -2 по сезону 1017.7 983.8
В 3-4
{5}
40 км в посл. час снег 10/0
[]
+2.0 -1.7 76 -2 -2 по сезону 1018.0 984.1
СВ 2 40 км {снег} 10/0
[]
+1.9 -1.5 78 -1 -1 по сезону 1018.1 984.2 +0.9 +2.6 0.0
СВ 2-3
{3}
40 км 10/0
[]
+1.7 -1.4 80 -2 -2 по сезону 1018.4 984.4
СВ 2 35 км 10/0 2000 м
[]
+1.6 -1.3 81 -2 -2 по сезону 1018.7 984.7
С 2 30 км 10/0
[]
+1.5 -1.1 83 -2 -2 по сезону 1019.0 985.0
С 2 30 км 10/0 2000 м
[]
+1.4 -1.2 83 -2 -2 по сезону 1019.0 985.0
СЗ 1-1
{2}
30 км 10/10 1500 м
[]
+1.4 -1.1 83 -0 -0 по сезону 1019.8 985.8
СЗ 1 35 км 10/10 1000 м
[]
+1.4 -1.1 83 -0 -0 по сезону 1020.1 986.0
СЗ 1 35 км 10/10 1500 м
[]
+1.4 -1.0 84 -0 -0 по сезону 1020.3 986.2
З 1 35 км 10/10 1500 м
[]
+1.3 -1.1 84 -1 -1 по сезону 1021.1 987.0
СЗ 1 35 км 10/10 1500 м
[]
+1.1 -1.2 85 -1 -1 по сезону 1021.5 987.4
С 1 35 км 10/0 2000 м
[]
+1.1 -0.9 86 -1 -1 по сезону 1022.4 988.2
З 1-2
{2}
30 км 10/0
[]
+0.9 -0.9 88 -1 -1 по сезону 1023.0 988.8
СЗ 2 28 км 1/0
[]
+0.1 -1.5 89 -4 -4 прохладно 1023.9 989.6 +0.1 +1.9
СЗ 1-2
{2}
26 км ясно -0.4 -1.9 90 -3 -3 прохладно 1024.8 990.4
Ю 1-2
{2}
21 км ясно -0.3 -1.6 91 -2 -2 по сезону 1025.8 991.3
З 2 21 км ясно +0.7 -2.1 82 -3 -2 прохладно 1026.5 992.1
З 1-2
{2}
26 км ясно +2.0 -2.5 72 +1 +3 по сезону 1027.0 992.8
З 1-2
{2}
35 км ясно +3.6 -2.7 63 +3 +5 по сезону 1027.0 993.0
З 2 40 км 4/4 1230 м
[]
+4.1 -3.2 59 +2 +3 по сезону 1027.2 993.2
З 2-4
{5}
35 км 10/10 1080 м
[]
+4.1 -2.1 64 +2 +2 по сезону 1027.3 993.3
З 2-3
{4}
40 км 10/10 960 м
[]
+4.2 -1.9 64 +2 +2 по сезону 1027.1 993.1
З 2 40 км 10/10 1000 м
[]
+4.1 -2.0 64 +2 +2 по сезону 1027.4 993.4
З 2 30 км 10/10 930 м
[]
+3.5 -1.8 68 +1 +1 по сезону 1027.8 993.7
З 3 35 км 10/10 900 м
[]
+2.8 -1.8 72 -1 -1 по сезону 1028.0 993.8
З 1 30 км 5/5 600 м
[]
+2.1 -1.5 77 +1 +1 по сезону 1028.5 994.2 -0.7 +4.7
З 2 29 км 10/10 840 м
[]
+2.5 -1.4 75 -0 -0 по сезону 1029.1 994.9
З 2 15 км слаб. снег {дождь} 10/10 360 м
[]
+2.4 -1.0 78 -1 -1 по сезону 1029.4 995.2
З 3 13 км слаб. морось {дождь} 9/9 840 м
[]
+1.8 -0.4 85 -2 -2 по сезону 1029.8 995.5 0.0
ЮЗ 2 15 км слаб. морось {дождь} 10/10 400 м
[]
+1.6 -0.1 88 -2 -2 по сезону 1029.9 995.5
ЮЗ 2-2
{2}
14 км в посл. час морось 9/9 1230 м
[]
+1.3 -0.3 89 -2 -2 по сезону 1029.9 995.5
ЮЗ 1 12 км {снег, дождь} ясно +0.5 -0.5 93 -2 -2 по сезону 1029.9 995.4 0.0 1
ЮВ 2-2
{2}
7000 м дымка 9/9 1410 м
[]
+0.2 -0.7 94 -4 -4 прохладно 1030.3 995.8
С 2 5000 м дымка 10/10 420 м
[]
0.0 -0.8 94 -4 -4 прохладно 1030.9 996.3
ЮВ 1 7000 м дымка 9/9 1470 м
[]
-0.3 -1.1 94 -2 -2 по сезону 1030.3 995.7
ЮЗ 1-1
{2}
7000 м дымка ясно -0.8 -1.5 95 -3 -3 прохладно 1030.3 995.6
Ю 2-2
{2}
10 км 10/10 1500 м
[]
-0.5 -1.4 94 -4 -4 прохладно 1030.2 995.6
З 1 9000 м 1/1 1500 м
[]
-1.2 -1.9 95 -4 -4 прохладно 1030.7 996.0 -1.2 +2.6 0.0 1
ЮВ 1-2
{2}
8000 м 9/9 1500 м
[]
-1.1 -1.8 95 -3 -3 прохладно 1031.1 996.4
В 1-2
{2}
10 км 10/10 1440 м
[]
-0.5 -1.4 94 -3 -3 прохладно 1031.6 996.9
Ю 1 10 км 10/10 1410 м
[]
+0.3 -0.9 92 -2 -2 по сезону 1031.2 996.6
СВ 1-1
{2}
18 км 1/1 1500 м
[]
+2.6 -0.7 79 +1 +3 по сезону 1031.2 996.9
СЗ 1 20 км 9/9 1500 м
[]
+3.6 -0.5 75 +2 +3 по сезону 1030.4 996.3
С 1 27 км 9/9 1440 м
[]
+4.6 0.0 72 +4 +4 по сезону 1029.7 995.7
С 1-2
{2}
30 км ясно +5.6 -0.5 65 +5 +6 тепло 1028.7 994.9
С 1-2
{2}
40 км ясно +5.4 -0.5 66 +5 +5 тепло 1028.2 994.4
С 1 30 км 1/0
[]
+5.0 -0.1 70 +4 +4 по сезону 1028.4 994.5
СВ 1-2
{2}
35 км ясно +3.9 -0.4 74 +3 +3 по сезону 1028.7 994.7
ЮВ 1-2
{2}
16 км ясно +1.7 -0.3 87 -0 -0 по сезону 1029.2 994.9
В 1 12 км ясно +0.8 -0.6 90 -1 -1 по сезону 1029.2 994.8 -1.4 +5.7
В 2-2
{3}
8000 м н/о +0.1 -1.1 92 -4 -4 прохладно 1029.3 994.8
В 1-1
{2}
8000 м н/о -0.2 -1.2 93 -2 -2 по сезону 1029.1 994.5
В 1 9000 м 10/0
[]
-0.2 -1.0 94 -2 -2 по сезону 1028.8 994.3
В 1-2
{3}
6000 м дымка ясно 0.0 -0.9 94 -2 -2 по сезону 1028.3 993.8
В 2-2
{3}
7000 м дымка ясно -0.3 -1.1 94 -4 -4 прохладно 1028.1 993.6
В 2 7000 м дымка ясно -0.6 -1.3 95 -5 -5 холодно 1027.4 992.9
В 2-3
{3}
8000 м ясно -0.6 -1.7 92 -4 -4 прохладно 1027.0 992.5
В 2-4
{4}
7000 м дымка 3/0
[]
-0.7 -1.7 93 -5 -5 холодно 1026.4 991.9
В 3-4
{5}
7000 м дымка ясно -0.8 -1.9 92 -6 -6 холодно 1025.9 991.4
В 3-4
{5}
8000 м ясно -0.8 -2.0 92 -6 -6 холодно 1025.5 991.0
В 3-5
{5}
7000 м дымка ясно -1.0 -2.2 92 -6 -6 холодно 1025.5 991.0
В 4 8000 м ясно -0.7 -2.1 90 -6 -6 холодно 1025.2 990.7 -1.4 +0.7
СВ 3-4
{6}
7000 м дымка ясно -1.0 -2.4 90 -6 -6 холодно 1025.2 990.7
СВ 2-5
{5}
9000 м ясно -0.7 -2.3 89 -5 -4 холодно 1025.1 990.6
В 3 13 км ясно +1.0 -2.2 79 -3 -3 прохладно 1025.1 990.8
В 4-5
{6}
17 км ясно +2.2 -2.2 73 -2 -1 по сезону 1024.8 990.7
В 4-6
{6}
25 км ясно +3.5 -2.4 65 -1 +1 по сезону 1023.5 989.6
В 5-7
{7}
23 км ясно +4.4 -2.0 63 -0 +1 по сезону 1022.8 989.0
В 5-6
{7}
28 км ясно +4.9 -2.0 61 +1 +1 по сезону 1021.9 988.2
В 4-7
{7}
26 км ясно +4.6 -1.6 64 +1 +1 по сезону 1021.5 987.8
В 4-6
{7}
29 км ясно +4.1 -1.1 69 0 0 по сезону 1021.4 987.6
СВ 4-5
{5}
27 км ясно +2.6 -1.1 77 -2 -2 по сезону 1021.4 987.4
СВ 3-4
{5}
17 км ясно +1.5 -1.0 83 -3 -3 прохладно 1021.5 987.4
В 2 19 км ясно +1.2 -1.1 85 -2 -2 по сезону 1021.9 987.8 -1.0 +5.1
В 1-2
{3}
13 км ясно -0.3 -2.0 88 -2 -2 по сезону 1022.3 988.0
В 1-2
{2}
12 км ясно -0.9 -2.2 91 -3 -3 прохладно 1022.6 988.2
В 3-3
{3}
13 км ясно -1.6 -2.9 91 -7 -7 холодно 1022.5 988.0
В 1-1
{3}
14 км ясно -1.7 -3.1 90 -4 -4 прохладно 1022.1 987.6
В 1-1
{3}
13 км ясно -2.2 -3.3 92 -5 -5 холодно 1022.4 987.8
Ю 1 15 км 9/0
[]
-2.2 -3.5 91 -5 -5 холодно 1022.2 987.6
Ю 1-2
{2}
9000 м 4/0
[]
-2.9 -4.1 91 -5 -5 холодно 1022.9 988.2
Ю 2-2
{3}
9000 м ясно -2.7 -3.8 92 -7 -7 холодно 1023.1 988.4
В 1-1
{3}
7000 м дымка ясно -3.3 -4.3 93 -6 -6 холодно 1023.4 988.6
В 1-1
{2}
8000 м ясно -3.7 -4.4 95 -6 -6 холодно 1023.6 988.8
ЮВ 1-1
{2}
7000 м дымка ясно -4.0 -4.7 95 -6 -6 холодно 1023.8 988.9
Ю 1 7000 м дымка ясно -3.7 -4.6 93 -6 -6 холодно 1024.0 989.2 -4.2 +1.1
В 1-1
{2}
8000 м ясно -4.1 -5.0 93 -7 -7 холодно 1024.2 989.3
СВ 1-1
{1}
9000 м ясно -3.4 -4.3 93 -6 -6 холодно 1024.6 989.8
С 1 11 км ясно -1.3 -4.8 77 -3 -2 прохладно 1024.6 990.0
ЮВ 1-2
{2}
12 км ясно +0.6 -3.5 74 -1 +1 по сезону 1024.6 990.3
С 1-1
{2}
12 км ясно +1.5 -3.0 72 0 +2 по сезону 1024.1 989.9
Ю 2-2
{2}
15 км ясно +3.3 -2.1 68 +1 +3 по сезону 1023.7 989.7
З 2-3
{3}
19 км ясно +3.7 -2.5 64 +1 +3 по сезону 1023.6 989.7
З 3-4
{4}
18 км ясно +3.5 -1.6 69 -0 0 по сезону 1023.4 989.5
З 2-3
{4}
16 км ясно +2.8 -1.4 74 -0 0 по сезону 1023.4 989.4
З 1-1
{2}
13 км ясно +1.6 -1.4 80 -0 -0 по сезону 1023.5 989.4
ЮВ 2-3
{3}
9000 м ясно -0.1 -2.1 86 -4 -4 прохладно 1023.9 989.5
ЮВ 2 8000 м ясно -0.9 -2.5 89 -5 -5 холодно 1024.1 989.6 -4.1 +4.2
Ю 2-2
{3}
10 км ясно -0.9 -2.5 89 -5 -5 холодно 1024.2 989.7
Ю 2-2
{3}
8000 м ясно -1.4 -2.9 90 -5 -5 холодно 1024.1 989.6
Ю 1-2
{3}
6000 м дымка ясно -2.1 -3.2 92 -4 -4 прохладно 1024.1 989.5
ЮВ 2-2
{2}
5000 м дымка 5/0
[]
-2.5 -3.6 92 -7 -7 холодно 1023.9 989.2
ЮВ 2-3
{3}
6000 м дымка 1/0
[]
-3.0 -4.1 92 -7 -7 холодно 1023.7 989.0
Ю 2 6000 м дымка ясно -2.7 -3.8 92 -7 -7 холодно 1023.5 988.8
ЮВ 2-3
{3}
6000 м дымка 5/5 400 м
[]
-3.2 -4.5 91 -7 -7 холодно 1023.2 988.5
Ю 2-2
{3}
7000 м дымка 5/5 330 м
[]
-2.9 -4.0 92 -7 -7 холодно 1023.0 988.3
ЮВ 2-2
{3}
6000 м дымка ясно -3.6 -4.6 93 -8 -8 очень
холодно
1022.7 987.9
С 1-1
{2}
6000 м дымка ясно -4.4 -5.3 93 -7 -7 холодно 1022.3 987.4
штиль 0-1
{2}
4300 м дымка ясно -4.2 -5.0 94 -5 -5 холодно 1021.7 986.9
СЗ 2 4500 м дымка ясно -3.8 -4.5 95 -8 -8 очень
холодно
1021.9 987.1 -4.5 -0.7
ЮВ 2-2
{2}
6000 м дымка ясно -4.7 -5.7 93 -9 -9 очень
холодно
1022.0 987.1
С 1-2
{2}
7000 м дымка 4/0
[]
-4.3 -5.3 93 -7 -7 холодно 1022.2 987.3
ЮВ 1 7000 м дымка 8/0
[]
-2.6 -5.1 83 -5 -4 холодно 1022.1 987.5
З 1-2
{3}
9000 м 10/0
[]
-1.3 -3.7 84 -3 -2 прохладно 1022.1 987.6
З 2-3
{3}
15 км 10/0
[]
-0.5 -3.3 81 -4 -3 прохладно 1021.0 986.7
З 1 18 км 10/0
[]
+1.9 -3.3 68 +1 +2 по сезону 1019.7 985.7
С 1 18 км 10/0
[]
+2.0 -2.5 72 +1 +1 по сезону 1018.6 984.7
СВ 1 17 км 10/0
[]
+2.8 -1.3 74 +1 +2 по сезону 1017.5 983.7
Ю 2 17 км 10/0
[]
+2.2 -1.1 79 -1 -1 по сезону 1016.7 982.9
С 1 15 км 10/0
[]
+1.5 -1.1 83 -0 -0 по сезону 1016.5 982.6
З 1 9000 м 10/0
[]
+0.6 -1.4 86 -1 -1 по сезону 1016.2 982.2
Ю 1 8000 м 10/0
[]
+0.2 -1.3 90 -2 -2 по сезону 1016.2 982.1 -4.8 +3.1
ЮВ 2 6000 м дымка 10/10 1500 м
[]
+0.1 -1.2 91 -4 -4 прохладно 1016.2 982.1
ЮВ 1-1
{3}
9000 м 9/9 1380 м
[]
+0.9 -0.6 90 -1 -1 по сезону 1015.6 981.6
З 1 11 км слаб. дождь {морось} 10/10 1440 м
[]
+1.8 -0.1 87 0 0 по сезону 1015.0 981.2 0.0
З 2 10 км в посл. час дождь {морось} 9/9 1020 м
[]
+2.3 +1.0 91 -1 -1 по сезону 1014.4 980.7
З 3-4
{4}
27 км в посл. час морось 10/10 1000 м
[]
+4.7 +1.3 79 +1 +1 по сезону 1013.5 980.1
З 4 28 км слаб. морось с дождем 10/10 600 м
[]
+7.2 +3.2 76 +4 +4 по сезону 1012.9 979.8 0.2
З 2 12 км слаб. дождь {морось} 9/9 360 м
[]
+5.7 +4.4 91 +3 +3 по сезону 1013.2 979.9
ЮЗ 4 16 км слаб. морось {дождь} 10/10 240 м
[]
+6.9 +6.4 97 +3 +3 по сезону 1013.2 980.1
ЮЗ 5 28 км слаб. морось {дождь} 9/9 360 м
[]
+7.4 +6.4 93 +3 +3 по сезону 1013.5 980.4 2
ЮЗ 6 55 км в посл. час дождь {морось} 10/10 400 м
[]
+7.8 +6.1 89 +4 +4 по сезону 1013.6 980.6
З 6 26 км слаб. морось с дождем 10/10 450 м
[]
+7.9 +5.9 87 +4 +4 по сезону 1014.1 981.1
З 5 7000 м слаб. дождь {морось} 9/9 300 м
[]
+7.5 +6.1 91 +3 +3 по сезону 1014.6 981.5 0.0 +8.1 3
З 9 5000 м дождь 10/10 450 м
[]
+7.5 +6.2 91 +2 +2 по сезону 1015.4 982.3
З 4 30 км в посл. час дождь {морось} 10/10 270 м
[]
+7.2 +6.4 95 +4 +4 по сезону 1016.3 983.1
З 6 30 км слаб. дождь {морось} 10/10 360 м
[]
+7.6 +6.3 91 +3 +3 по сезону 1016.7 983.5 4
З 6 50 км в посл. час дождь {морось} 10/10 420 м
[]
+8.0 +6.2 88 +4 +4 по сезону 1017.3 984.2
З 4 45 км в посл. час дождь {морось} 10/10 420 м
[]
+8.2 +6.3 88 +5 +5 тепло 1017.4 984.3
З 7 19 км слаб. морось с дождем 10/10 420 м
[]
+8.2 +6.1 87 +4 +4 по сезону 1017.3 984.2 0.5
З 4 50 км в посл. час дождь {морось} 10/10 630 м
[]
+8.2 +6.2 87 +5 +5 тепло 1017.3 984.2
Местоположение метеостанции Эринген (Германия): широта 49.22 долгота 9.52 высота над уровнем моря 276 м.
В архиве по умолчанию представлена погода в Эрингене за последнюю неделю. Архивные данные за месяц целиком и за предыдущие месяцы, начиная с января 2011 года, Вы можете получить, выбрав интересующий диапазон дат из раскрывающегося списка и нажав кнопку "Найти!".
*Определитесь, кто Вы:
Внимание! Время в таблицах - всемирное. Для получения местного времени необходимо прибавить поправку, которая равна 1 ч.
Смотрите также архив погоды в соседних городах и на ближайших метеорологических станциях:
Партнеры нашего сайта:      
Пояснения к столбцам:
  • Ветер - указаны скорость ветра в м/с - средняя за 10 мин, порывы в срок и между сроками (в фигурных скобках) и направление, откуда дует ветер: С - северный,
  • СВ - северо-восточный, В - восточный, ЮВ - юго-восточный, Ю - южный, ЮЗ - юго-западный, З - западный, СЗ - северо-западный.
  • Видимость - горизонтальная дальность видимости в метрах или километрах. При видимости от 1 до 10 км при отсутствии осадков обычно наблюдается дымка, при ухудшении видимости до 1 км и менее - туман. В сухую погоду видимость может ухудшаться дымом, пылью или мглою.
  • Явления - указаны атмосферные явления, наблюдавшиеся в срок или в последний час перед сроком; фигурными скобками обозначены явления, наблюдавшиеся между сроками (за 1-3 часа до срока); квадратными скобками обозначены град или гололедные отложения с указанием их диаметра в мм.
  • Облачность - указаны через наклонную черту общая и нижняя облачность в баллах и высота нижней границы облаков в метрах; квадратными скобками обозначены формы облаков: Ci - перистые, Cs - перисто-слоистые, Cc - перисто-кучевые, Ac - высококучевые, As - высокослоистые, Sc - слоисто-кучевые, Ns - слоисто-дождевые, Cu - кучевые, Cb - кучево-дождевые. Подробнее классификацию облаков см. в Атласе облаков (PDF).
  • T - Температура воздуха - температура, измеренная на высоте 2 м над землей.
  • Td - Температура точки росы - температура, при понижении до которой содержащийся в воздухе водяной пар достигнет насыщения.
  • f - Относительная влажность воздуха - влажноcть воздуха, измеренная на высоте 2 м над землей.
  • Te - Эффективная температура - температура, которую ощущает одетый по сезону человек в тени. Характеристика душности погоды. При расчете учитывается влияние влажности воздуха и скорости ветра на теплоощущения человека.
  • Tes - Эффективная температура на солнце - температура, которую ощущает человек, с поправкой на солнечный нагрев. Характеристика знойности погоды. Зависит от высоты солнца над горизонтом, облачности и скорости ветра. Ночью, в пасмурную погоду, а также при ветре 12 м/с и более поправка равна нулю.
  • P - Атмосферное давление - приведенное к уровню моря атмосферное давление.
  • Po - Атмосферное давление - измеренное на уровне метеостанции атмосферное давление.
  • Tmin - Минимальная температура - минимум температуры воздуха на высоте 2 м над землей.
  • Tmax - Максимальная температура - максимум температуры воздуха на высоте 2 м над землей.
  • R - Количество осадков - Количество выпавших осадков за период времени, мм. При наведении курсора мыши на число - период времени, за который выпало указанное количество осадков.
  • R24 - Количество осадков - Количество выпавших осадков за 24 часа, мм.
  • S - Снежный покров - Высота снежного покрова, см. При наведении курсора мыши на число - состояние снежного покрова и степень покрытия местности в баллах.